SCOUT A R/B, 2755

Orbit data source: Space-Track

SCOUT A R/B, 2755 is space debris in LEO originally from a launch on Fri, 14 Apr 1967 UTC launched from the Air Force Western Test Range (AFWTR). Debris objects in space refer to the collection of defunct objects orbiting the Earth. Examples of debris include non-operational satellites, rocket bodies, and fragments generated from explosions, collisions, or faulty payload assembly.

Loading next visibility...
SCOUT A R/B details
Identifier
2755, 1967-034B
Orbit
LEO
Last TLE update9 hours ago
Origin
Flag of USNASA LaRC (US)
ManufacturerABL
MissionSpacecraft
Bus & MotorALTAIR, Unknown motor
Mass33 kg wet, 33 kg dry
Launch date (UTC)
1967-04-14 (58 years ago)
Launch vehicleUnknown
Launch site
Air Force Western Test Range (AFWTR)
Object type
Payload
Rocket body
Debris
Shape & HBRCyl, 1.5 m
Radar Cross Section0.687 m², Medium (>0.1 m² and < 1m²)

Expand to show TLE details & history

TLE from 9 hours ago
0 SCOUT A R/B
1 02755U 67034B   25024.58454606  .00000050  00000-0  60456-4 0  9990
2 02755  90.2475  42.6045 0026830  36.3182  82.3029 13.53926399853214
Epoch: 2025-01-24T14:01Z
Definitive object data (Epoch: 2025-01-24T14:01:44.779Z)
Latitude61.16168°
Longitude-111.53051°
Altitude1,065.76 km
Speed7.326 km/s
True Right ascension14h 52m 12s
True Declination61° 01' 20"
Sunlit
Object was in daylight at TLE epoch
Visualization TLE readout
Latitude66.10718°
Longitude-111.41259°
Altitude1,065.408 km
Speed7.327 km/s
Apparent Right ascension13h 11m 14s
Apparent Declination19° 59' 23"
Sunlit
Object is in daylight
Visualization observer readout
Local Sidereal Time00:09:56
Azimuth343.601° N
Elevation-28.412°
Doppler factor1
Orbital elements
Apogee altitude1,074.834 km
Perigee altitude1,034.949 km
Semi-major axis7,433.029 km
Eccentricity0.002683
Inclination90.2475°
RAAN42.6045°
Arg. of periapsis36.3182°
True anomaly82.60771°
Mean anomaly82.3029°
Eccentric anomaly82.45529°
Mean motion3.38684 °/min
BSTAR0.000060456
Orbital period106.29 mins
Loading maneuver chart data...
Loading historical data...
Loading historical data...
Loading historical data...
Loading historical data...
Loading historical data...
Loading historical data...
Loading historical data...

SCOUT A R/B Visibility forecast

Observer location: undefined°, undefined

Span
Click to sort rows by Start time (UTC) header in descending order
Start Az.
Max El. time (UTC)
Max El. Az.
Max El.
End time (UTC)
End Az.
9 mins2025-01-25 00:13:23.221Z121.016° SE2025-01-25 00:17:23.221Z78.618° E22.24°2025-01-25 00:22:23.221Z25.246° NE
11 mins2025-01-25 01:58:23.221Z200.051° SSW2025-01-25 02:03:23.221Z271.542° WNW38.097°2025-01-25 02:09:23.221Z346.619° N
11 mins2025-01-25 13:06:23.221Z11.553° NNE2025-01-25 13:11:23.221Z83.986° E42.071°2025-01-25 13:17:23.221Z170.726° S
7 mins2025-01-25 14:54:23.221Z316.576° NNW2025-01-25 14:57:23.221Z283.023° WNW18.862°2025-01-25 15:01:23.221Z244.666° WSW
|